Torna al catalogo

STARLINK-34765

AttivoComunicazioniVLEO
NORAD 66506·PAYLOAD·🇺🇸 United States

Lanciato Nov 15, 2025 da Cape Canaveral Space Force Station

Loading…

Prossimi Passaggi (prossime 24 ore)

TLE

AggiornatoSource: CelesTrak SupGP

Epoca: Sep 15, 2026, 03:12 UTC

1 66506C 25263X   26258.13381944  .00038734  00000+0  14026-2 0  2584
2 66506  43.0037   0.8204 0001707 268.5410  27.0915 15.27566506    15

Traccia STARLINK-34765 in tempo reale con AllMySat

Download on the App Store